STARLINK-30508, 57979

Orbit data source: Space-Track

STARLINK-30508, 57979 is a payload satellite owned by SpaceX/Seattle (US) in LEO that was launched on Sat, 30 Sep 2023 UTC via an FALCON 9 launch vehicle from the Air Force Eastern Test Range (AFETR). Payload-class satellites include a variety of spacecraft equipped with specific instruments for various scientific and technological missions. These include communications satellites like Starlink; space stations such as the ISS; scientific satellites like the Hubble; Earth observation satellites from companies like Planet Labs, Umbra, and HawkEye 360; GPS; miniature CubeSats for education and research; and military/defense satellites.

Loading next visibility...
Identifier
57979, 2023-151R
Orbit
LEO
Country
Flag of USUS
Related business
Manufacturer
SpaceX/Seattle
Mission
Operational Commercial Communications
Bus & Motor
STARLINK V2M, Unknown motor
Mass
730 kg wet, ~700 kg dry
Launch date (UTC)
2023-09-30 (3 years ago)
Launch vehicle
FALCON 9
Launch site
Air Force Eastern Test Range (AFETR)
Object type
Payload
Rocket body
Debris
Shape & HBR
Box + 2 Pan, 17.7 m
Radar Cross Section
33.884 m², Large (>1 m²)

Expand to show TLE details & history
Last TLE update: 1 day ago

TLE from 1 day ago
0 STARLINK-30508
1 57979U 23151R   26175.08423764 -.00002704  00000-0 -88642-4 0  9991
2 57979  43.0033 109.9402 0001159 260.6150  99.4571 15.27622570151866
Epoch: 2026-06-24T02:01Z
TLE epoch observation values (Epoch: 2026-06-24T02:01:18.132Z)
Latitude
0.00002°
Longitude
167.36814°
Altitude
482.828 km
Speed
7.626 km/s
True Right ascension
07h 19m 45s
True Declination
0° 00' 00"
Sunlit
Object was in daylight at epoch
Visualization orbit readout
Latitude
Unknown
Longitude
Unknown
Altitude
Unknown
Speed
Unknown
Apparent Right ascension
Unknown
Apparent Declination
Unknown
Sunlit
N/A
Visualization observer readout
Local Sidereal Time
13:37:35
Azimuth
Unknown
Elevation
Unknown
Doppler factor
Unknown
Orbital elements
Apogee altitude
485.662 km
Perigee altitude
484.071 km
Semi-major axis
6,863.003 km
Eccentricity
0.00012
Inclination
43.0033°
RAAN
109.9402°
Arg. of periapsis
260.615°
True anomaly
99.4702°
Mean anomaly
99.4571°
Eccentric anomaly
99.46365°
Mean motion
3.81744 °/min
Orbital period
94.3 mins
BSTAR
-0.000088642
Loading maneuver chart data...
Computing Atmospheric mass density...
Loading historical data...
Loading historical data...
Loading historical data...
Loading historical data...
Loading historical data...
Loading historical data...
Loading historical data...

Documentation

Showing up to 5 results
|